Showing default

GOSAT 2, 43672

Orbit data source: Space-Track

GOSAT 2, 43672 is a payload satellite owned by JAXA (JP) in SSO that was launched on Mon, 29 Oct 2018 UTC via an H-IIA 202 launch vehicle from the Tanegashima Space Center (TNSTA). Payload-class satellites include a variety of spacecraft equipped with specific instruments for various scientific and technological missions. These include communications satellites like Starlink; space stations such as the ISS; scientific satellites like the Hubble; Earth observation satellites from companies like Planet Labs, Umbra, and HawkEye 360; GPS; miniature CubeSats for education and research; and military/defense satellites.

Loading next visibility...
Identifier
43672, 2018-084B
Orbit
SSO
Country
Flag of JPJP / JPN
Related business
Manufacturer
MELCO
Mission
Operational Civil Science
Bus & Motor
GOSAT, AOCS
Mass
1,750 kg wet, ~1,700 kg dry
Launch date (UTC)
2018-10-29 (8 years ago)
Launch vehicle
H-IIA 202
Launch site
Tanegashima Space Center (TNSTA)
Object type
Payload
Rocket body
Debris
Shape & HBR
Box + 2 Pan, 8.4 m
Radar Cross Section
20.392 m², Large (>1 m²)

Expand to show TLE details & history
Last TLE update: 2 days ago

TLE from 2 days ago
0 GOSAT 2
1 43672U 18084B   26171.26052856 -.00000752  00000-0 -83542-4 0  9996
2 43672  97.8798 282.7215 0001462  91.7361 268.4021 14.84232145414016
Epoch: 2026-06-20T06:15Z
TLE epoch observation values (Epoch: 2026-06-20T06:15:09.667Z)
Latitude
-0°
Longitude
-79.54648°
Altitude
619.054 km
Speed
7.549 km/s
True Right ascension
18h 50m 53s
True Declination
0° 00' 00"
Sunlit
Object was in full shadow at epoch
Visualization orbit readout
Latitude
Unknown
Longitude
Unknown
Altitude
Unknown
Speed
Unknown
Apparent Right ascension
Unknown
Apparent Declination
Unknown
Sunlit
N/A
Visualization observer readout
Local Sidereal Time
21:38:12
Azimuth
Unknown
Elevation
Unknown
Doppler factor
Unknown
Orbital elements
Apogee altitude
614.053 km
Perigee altitude
612.009 km
Semi-major axis
6,991.168 km
Eccentricity
0.00015
Inclination
97.8798°
RAAN
282.7215°
Arg. of periapsis
91.7361°
True anomaly
268.38535°
Mean anomaly
268.4021°
Eccentric anomaly
268.39373°
Mean motion
3.71295 °/min
Orbital period
96.96 mins
BSTAR
-0.000083542
Loading maneuver chart data...
Computing Atmospheric mass density...

Documentation

Showing up to 5 results
|